| time (UTC) | temp F | wind direction | speed MPH | gust MPH | rain 1hr in | rain 24hr in | rain mn in | humidity % | barometer mb |
| 20260906082043 | 49 | 322 | 7.0 | 17.0 | 0.00 | 0.00 | 0.00 | 60 | 1005.7 |
| 20260906081043 | 48 | 309 | 7.0 | 16.0 | 0.00 | 0.00 | 0.00 | 56 | 1005.6 |
| 20260906075037 | 48 | 313 | 5.0 | 16.0 | 0.00 | 0.00 | 0.00 | 55 | 1005.5 |
| 20260906074040 | 48 | 318 | 5.0 | 11.0 | 0.00 | 0.00 | 0.00 | 57 | 1005.3 |
| 20260906073040 | 48 | 302 | 6.0 | 12.0 | 0.00 | 0.00 | 0.00 | 56 | 1005.3 |
| 20260906072045 | 48 | 336 | 5.0 | 14.0 | 0.00 | 0.00 | 0.00 | 57 | 1005.1 |
| 20260906071110 | 48 | 322 | 4.0 | 17.0 | 0.00 | 0.00 | 0.00 | 56 | 1004.9 |
| 20260906070046 | 48 | 311 | 5.0 | 17.0 | 0.00 | 0.00 | 0.00 | 57 | 1004.9 |
| 20260906065046 | 48 | 322 | 5.0 | 14.0 | 0.00 | 0.00 | 0.00 | 57 | 1004.6 |
| 20260906064049 | 48 | 298 | 4.0 | 17.0 | 0.00 | 0.00 | 0.00 | 59 | 1004.4 |
| 20260906063047 | 48 | 318 | 3.0 | 12.0 | 0.00 | 0.00 | 0.00 | 59 | 1004.4 |
| 20260906062108 | 48 | 323 | 2.0 | 16.0 | 0.00 | 0.00 | 0.00 | 59 | 1004.2 |
| 20260906061048 | 48 | 347 | 5.0 | 18.0 | 0.00 | 0.00 | 0.00 | 60 | 1003.9 |
| 20260906060051 | 48 | 315 | 9.0 | 17.0 | 0.00 | 0.00 | 0.00 | 59 | 1003.9 |
| 20260906055034 | 48 | 360 | 6.0 | 14.0 | 0.00 | 0.00 | 0.00 | 58 | 1003.8 |
| 20260906054036 | 48 | 336 | 5.0 | 14.0 | 0.00 | 0.00 | 0.00 | 57 | 1003.7 |
| 20260906053037 | 48 | 323 | 6.0 | 18.0 | 0.00 | 0.00 | 0.00 | 55 | 1003.7 |
| 20260906052055 | 48 | 319 | 8.0 | 19.0 | 0.00 | 0.00 | 0.00 | 55 | 1003.6 |
| 20260906051052 | 48 | 301 | 7.0 | 17.0 | 0.00 | 0.00 | 0.00 | 58 | 1003.4 |
| 20260906050049 | 48 | 306 | 2.0 | 13.0 | 0.00 | 0.00 | 0.00 | 58 | 1003.4 |
| 20260906045047 | 49 | 323 | 4.0 | 11.0 | 0.00 | 0.00 | 0.00 | 59 | 1003.3 |
| 20260906044110 | 49 | 302 | 10.0 | 17.0 | 0.00 | 0.00 | 0.00 | 57 | 1003.1 |
| 20260906043051 | 49 | 339 | 5.0 | 18.0 | 0.00 | 0.00 | 0.00 | 59 | 1003.1 |
| 20260906042049 | 49 | 315 | 4.0 | 14.0 | 0.00 | 0.00 | 0.00 | 59 | 1002.9 |
| 20260906041108 | 48 | 330 | 6.0 | 13.0 | 0.00 | 0.00 | 0.00 | 57 | 1002.8 |
| 20260906040046 | 48 | 299 | 7.0 | 14.0 | 0.00 | 0.00 | 0.00 | 57 | 1002.8 |
| 20260906035045 | 49 | 312 | 1.0 | 16.0 | 0.00 | 0.00 | 0.00 | 57 | 1002.6 |
| 20260906034045 | 49 | 318 | 4.0 | 19.0 | 0.00 | 0.00 | 0.00 | 56 | 1002.4 |
| 20260906033045 | 49 | 323 | 7.0 | 17.0 | 0.00 | 0.00 | 0.00 | 56 | 1002.4 |
| 20260906032043 | 49 | 318 | 2.0 | 19.0 | 0.00 | 0.00 | 0.00 | 58 | 1002.4 |
| 20260906031043 | 49 | 337 | 2.0 | 14.0 | 0.00 | 0.00 | 0.00 | 58 | 1002.3 |
| 20260906030046 | 49 | 311 | 6.0 | 13.0 | 0.00 | 0.00 | 0.00 | 58 | 1002.3 |
| 20260906025046 | 49 | 323 | 5.0 | 12.0 | 0.00 | 0.00 | 0.00 | 58 | 1002.2 |
| 20260906024047 | 49 | 311 | 5.0 | 17.0 | 0.00 | 0.00 | 0.00 | 58 | 1001.9 |
| 20260906023048 | 49 | 332 | 7.0 | 20.0 | 0.00 | 0.00 | 0.00 | 58 | 1001.9 |
| 20260906022108 | 50 | 360 | 6.0 | 14.0 | 0.00 | 0.00 | 0.00 | 54 | 1001.8 |
| 20260906021052 | 50 | 308 | 3.0 | 18.0 | 0.00 | 0.00 | 0.00 | 56 | 1001.7 |
| 20260906020051 | 50 | 309 | 4.0 | 12.0 | 0.00 | 0.00 | 0.00 | 59 | 1001.7 |
| 20260906015051 | 50 | 322 | 3.0 | 13.0 | 0.00 | 0.00 | 0.00 | 58 | 1001.4 |
| 20260906014036 | 51 | 320 | 5.0 | 12.0 | 0.00 | 0.00 | 0.00 | 58 | 1001.4 |
| 20260906013036 | 51 | 308 | 0.0 | 13.0 | 0.00 | 0.00 | 0.00 | 57 | 1001.4 |
| 20260906012058 | 51 | 312 | 4.0 | 18.0 | 0.00 | 0.00 | 0.00 | 56 | 1001.3 |
| 20260906011036 | 51 | 309 | 2.0 | 12.0 | 0.00 | 0.00 | 0.00 | 57 | 1001.2 |
| 20260906010037 | 51 | 319 | 5.0 | 13.0 | 0.00 | 0.00 | 0.00 | 56 | 1001.2 |
| 20260906005034 | 51 | 325 | 1.0 | 12.0 | 0.00 | 0.00 | 0.00 | 57 | 1000.9 |
| 20260906004036 | 51 | 298 | 4.0 | 13.0 | 0.00 | 0.00 | 0.00 | 57 | 1000.8 |
| 20260906003055 | 51 | 315 | 3.0 | 16.0 | 0.00 | 0.00 | 0.00 | 59 | 1000.8 |
| 20260906002053 | 51 | 304 | 1.0 | 14.0 | 0.00 | 0.00 | 0.00 | 57 | 1000.7 |
| 20260906001037 | 51 | 308 | 1.0 | 8.0 | 0.00 | 0.00 | 0.00 | 59 | 1000.5 |
| 20260906000114 | 51 | 326 | 3.0 | 8.0 | 0.00 | 0.00 | 0.00 | 57 | 1000.5 |
| 20260905235052 | 50 | 316 | 1.0 | 8.0 | 0.00 | 0.00 | 0.00 | 59 | 1000.5 |
| 20260905234053 | 50 | 301 | 4.0 | 10.0 | 0.00 | 0.00 | 0.00 | 58 | 1000.5 |
| 20260905233046 | 50 | 308 | 0.0 | 10.0 | 0.00 | 0.00 | 0.00 | 54 | 1000.5 |
| 20260905232045 | 50 | 332 | 4.0 | 12.0 | 0.00 | 0.00 | 0.00 | 58 | 1000.5 |
| 20260905231051 | 50 | 313 | 0.0 | 2.0 | 0.00 | 0.00 | 0.00 | 60 | 1000.5 |
| 20260905230034 | 51 | 315 | 2.0 | 8.0 | 0.00 | 0.00 | 0.00 | 57 | 1000.5 |
| 20260905225034 | 51 | 309 | 0.0 | 12.0 | 0.00 | 0.00 | 0.00 | 57 | 1000.5 |
| 20260905224053 | 51 | 316 | 4.0 | 14.0 | 0.00 | 0.00 | 0.00 | 58 | 1000.2 |
| 20260905223049 | 51 | 323 | 1.0 | 14.0 | 0.00 | 0.00 | 0.00 | 58 | 1000.2 |
| 20260905222047 | 51 | 309 | 1.0 | 11.0 | 0.00 | 0.00 | 0.00 | 57 | 1000.2 |
| 20260905221111 | 52 | 315 | 3.0 | 14.0 | 0.00 | 0.00 | 0.00 | 55 | 1000.1 |
| 20260905220108 | 52 | 298 | 0.0 | 17.0 | 0.00 | 0.00 | 0.00 | 57 | 1000.1 |
| 20260905215044 | 52 | 305 | 5.0 | 14.0 | 0.00 | 0.00 | 0.00 | 59 | 999.9 |
| 20260905214048 | 52 | 342 | 5.0 | 12.0 | 0.00 | 0.00 | 0.00 | 58 | 999.8 |
| 20260905213035 | 52 | 298 | 3.0 | 13.0 | 0.00 | 0.00 | 0.00 | 57 | 999.8 |
| 20260905212031 | 52 | 294 | 7.0 | 16.0 | 0.00 | 0.00 | 0.00 | 57 | 999.8 |
| 20260905211039 | 52 | 320 | 3.0 | 10.0 | 0.00 | 0.00 | 0.00 | 58 | 999.7 |
| 20260905210059 | 52 | 311 | 5.0 | 16.0 | 0.00 | 0.00 | 0.00 | 58 | 999.7 |
| 20260905205037 | 52 | 309 | 5.0 | 11.0 | 0.00 | 0.00 | 0.00 | 58 | 999.6 |
| 20260905204037 | 52 | 330 | 2.0 | 11.0 | 0.00 | 0.00 | 0.00 | 57 | 999.5 |
| 20260905203034 | 52 | 340 | 2.0 | 12.0 | 0.00 | 0.00 | 0.00 | 57 | 999.5 |
| 20260905202035 | 52 | 320 | 2.0 | 16.0 | 0.00 | 0.00 | 0.00 | 56 | 999.3 |
| 20260905201036 | 52 | 312 | 8.0 | 13.0 | 0.00 | 0.00 | 0.00 | 56 | 999.2 |
| 20260905200035 | 52 | 305 | 3.0 | 12.0 | 0.00 | 0.00 | 0.00 | 54 | 999.2 |
| 20260905195034 | 52 | 311 | 6.0 | 18.0 | 0.00 | 0.00 | 0.00 | 55 | 999.2 |
| 20260905194037 | 52 | 323 | 2.0 | 17.0 | 0.00 | 0.00 | 0.00 | 55 | 999.2 |
| 20260905193058 | 52 | 339 | 6.0 | 14.0 | 0.00 | 0.00 | 0.00 | 53 | 999.2 |
| 20260905192037 | 52 | 328 | 8.0 | 16.0 | 0.00 | 0.00 | 0.00 | 54 | 999.1 |
| 20260905191058 | 52 | 319 | 6.0 | 17.0 | 0.00 | 0.00 | 0.00 | 53 | 999.1 |
| 20260905190039 | 52 | 308 | 2.0 | 11.0 | 0.00 | 0.00 | 0.00 | 49 | 999.1 |
| 20260905185040 | 51 | 315 | 3.0 | 11.0 | 0.00 | 0.00 | 0.00 | 47 | 999.1 |
| 20260905184106 | 52 | 311 | 5.0 | 12.0 | 0.00 | 0.00 | 0.00 | 46 | 998.8 |
| 20260905183044 | 51 | 308 | 5.0 | 15.0 | 0.00 | 0.00 | 0.00 | 41 | 998.8 |
| 20260905182106 | 51 | 315 | 3.0 | 14.0 | 0.00 | 0.00 | 0.00 | 39 | 998.7 |
| 20260905181102 | 51 | 335 | 8.0 | 17.0 | 0.00 | 0.00 | 0.00 | 46 | 998.6 |
| 20260905180059 | 51 | 316 | 4.0 | 14.0 | 0.00 | 0.00 | 0.00 | 54 | 998.6 |
| 20260905175038 | 52 | 330 | 6.0 | 17.0 | 0.00 | 0.00 | 0.00 | 54 | 998.5 |
| 20260905174039 | 52 | 319 | 4.0 | 14.0 | 0.00 | 0.00 | 0.00 | 55 | 998.3 |
| 20260905173040 | 52 | 344 | 4.0 | 12.0 | 0.00 | 0.00 | 0.00 | 56 | 998.3 |
| 20260905172044 | 52 | 318 | 5.0 | 12.0 | 0.00 | 0.00 | 0.00 | 55 | 998.2 |
| 20260905171045 | 52 | 335 | 8.0 | 18.0 | 0.00 | 0.00 | 0.00 | 55 | 998.1 |
| 20260905170047 | 52 | 347 | 4.0 | 17.0 | 0.00 | 0.00 | 0.00 | 41 | 998.1 |
| 20260905165046 | 52 | 325 | 9.0 | 18.0 | 0.00 | 0.00 | 0.00 | 37 | 997.8 |
| 20260905164051 | 52 | 349 | 3.0 | 14.0 | 0.00 | 0.00 | 0.00 | 35 | 997.6 |
| 20260905163035 | 52 | 309 | 6.0 | 13.0 | 0.00 | 0.00 | 0.00 | 33 | 997.6 |
| 20260905162038 | 51 | 323 | 4.0 | 20.0 | 0.00 | 0.00 | 0.00 | 29 | 997.6 |
| 20260905161038 | 51 | 295 | 3.0 | 14.0 | 0.00 | 0.00 | 0.00 | 25 | 997.5 |
| 20260905160035 | 51 | 306 | 5.0 | 13.0 | 0.00 | 0.00 | 0.00 | 20 | 997.5 |
| 20260905155035 | 50 | 335 | 7.0 | 13.0 | 0.00 | 0.00 | 0.00 | 14 | 997.4 |
| 20260905154057 | 50 | 316 | 5.0 | 13.0 | 0.00 | 0.00 | 0.00 | 14 | 997.2 |
| 20260905153038 | 50 | 306 | 5.0 | 17.0 | 0.00 | 0.00 | 0.00 | 15 | 997.2 |
| 20260905152039 | 50 | 316 | 3.0 | 18.0 | 0.00 | 0.00 | 0.00 | 17 | 997.2 |
| 20260905151039 | 50 | 319 | 2.0 | 11.0 | 0.00 | 0.00 | 0.00 | 22 | 997.1 |
| 20260905150038 | 51 | 340 | 2.0 | 14.0 | 0.00 | 0.00 | 0.00 | 24 | 997.1 |
| 20260905145040 | 51 | 333 | 3.0 | 16.0 | 0.00 | 0.00 | 0.00 | 19 | 996.9 |
| 20260905144042 | 50 | 309 | 1.0 | 13.0 | 0.00 | 0.00 | 0.00 | 20 | 996.8 |
| 20260905143042 | 50 | 311 | 3.0 | 14.0 | 0.00 | 0.00 | 0.00 | 23 | 996.8 |
| 20260905142042 | 51 | 299 | 5.0 | 15.0 | 0.00 | 0.00 | 0.00 | 27 | 996.6 |
| 20260905141041 | 51 | 302 | 6.0 | 11.0 | 0.00 | 0.00 | 0.00 | 27 | 996.5 |
| 20260905140037 | 51 | 323 | 9.0 | 13.0 | 0.00 | 0.00 | 0.00 | 21 | 996.5 |
| 20260905135058 | 51 | 294 | 4.0 | 12.0 | 0.00 | 0.00 | 0.00 | 18 | 996.4 |
| 20260905134058 | 51 | 329 | 2.0 | 17.0 | 0.00 | 0.00 | 0.00 | 22 | 996.2 |
| 20260905133054 | 51 | 315 | 5.0 | 16.0 | 0.00 | 0.00 | 0.00 | 18 | 996.2 |
| 20260905132038 | 50 | 352 | 6.0 | 18.0 | 0.00 | 0.00 | 0.00 | 17 | 996.1 |
| 20260905131100 | 50 | 315 | 5.0 | 14.0 | 0.00 | 0.00 | 0.00 | 17 | 996.0 |
| 20260905130037 | 51 | 323 | 4.0 | 16.0 | 0.00 | 0.00 | 0.00 | 20 | 996.0 |
| 20260905125037 | 51 | 319 | 2.0 | 17.0 | 0.00 | 0.00 | 0.00 | 22 | 995.8 |
| 20260905124039 | 51 | 337 | 7.0 | 17.0 | 0.00 | 0.00 | 0.00 | 22 | 995.8 |
| 20260905123037 | 51 | 304 | 9.0 | 19.0 | 0.00 | 0.00 | 0.00 | 15 | 995.8 |
| 20260905122038 | 51 | 328 | 8.0 | 17.0 | 0.00 | 0.00 | 0.00 | 13 | 995.7 |
| 20260905121039 | 51 | 301 | 9.0 | 17.0 | 0.00 | 0.00 | 0.00 | 9 | 995.5 |
| 20260905120043 | 50 | 350 | 8.0 | 18.0 | 0.00 | 0.00 | 0.00 | 8 | 995.5 |
| 20260905115044 | 50 | 302 | 5.0 | 17.0 | 0.00 | 0.00 | 0.00 | 8 | 995.3 |
| 20260905114049 | 50 | 319 | 8.0 | 17.0 | 0.00 | 0.00 | 0.00 | 5 | 995.1 |
| 20260905113041 | 50 | 329 | 5.0 | 19.0 | 0.00 | 0.00 | 0.00 | 6 | 995.1 |
| 20260905112040 | 50 | 325 | 4.0 | 18.0 | 0.00 | 0.00 | 0.00 | 9 | 995.0 |
| 20260905111102 | 51 | 360 | 7.0 | 15.0 | 0.00 | 0.00 | 0.00 | 14 | 994.8 |
| 20260905110039 | 51 | 316 | 4.0 | 13.0 | 0.00 | 0.00 | 0.00 | 14 | 994.8 |
| 20260905105039 | 51 | 323 | 8.0 | 14.0 | 0.00 | 0.00 | 0.00 | 13 | 994.6 |
| 20260905104045 | 51 | 326 | 7.0 | 17.0 | 0.00 | 0.00 | 0.00 | 13 | 994.4 |
| 20260905103045 | 51 | 301 | 3.0 | 16.0 | 0.00 | 0.00 | 0.00 | 13 | 994.4 |
| 20260905102045 | 52 | 350 | 11.0 | 19.0 | 0.00 | 0.00 | 0.00 | 14 | 994.2 |
| 20260905101044 | 52 | 359 | 7.0 | 19.0 | 0.00 | 0.00 | 0.00 | 17 | 994.0 |
| 20260905100044 | 52 | 289 | 9.0 | 17.0 | 0.00 | 0.00 | 0.00 | 14 | 994.0 |
| 20260905095043 | 52 | 35 | 7.0 | 16.0 | 0.00 | 0.00 | 0.00 | 13 | 993.9 |
| 20260905094045 | 53 | 320 | 5.0 | 17.0 | 0.00 | 0.00 | 0.00 | 11 | 993.7 |
| 20260905093049 | 52 | 329 | 8.0 | 21.0 | 0.00 | 0.00 | 0.00 | 8 | 993.7 |
| 20260905092048 | 52 | 332 | 3.0 | 19.0 | 0.00 | 0.00 | 0.00 | 8 | 993.6 |
| 20260905091050 | 52 | 299 | 8.0 | 24.0 | 0.00 | 0.00 | 0.00 | 8 | 993.4 |
| 20260905090049 | 52 | 330 | 8.0 | 22.0 | 0.00 | 0.00 | 0.00 | 8 | 993.4 |
| 20260905085051 | 52 | 323 | 7.0 | 14.0 | 0.00 | 0.00 | 0.00 | 8 | 993.4 |
| 20260905084052 | 52 | 333 | 4.0 | 17.0 | 0.00 | 0.00 | 0.00 | 8 | 993.2 |
| 20260905083051 | 52 | 311 | 10.0 | 17.0 | 0.00 | 0.00 | 0.00 | 8 | 993.2 |